This is the latest recevied weather packets stored in our database for station/object dl1wer-13. If no packets are shown the sender has not sent any weather packets the latest 10 day(s).
| Time | Temp. | Humidity | Pressure | Rain* | Wind** | Luminosity | Snow |
|---|---|---|---|---|---|---|---|
| 1777770020 | 8.89° C | 80% | 1042.6 hPa | 0 mm | - | - | - |
| 1777769419 | 8.89° C | 80% | 1042.4 hPa | 0 mm | - | - | - |
| 1777768820 | 8.89° C | 79% | 1042.5 hPa | 0 mm | - | - | - |
| 1777768220 | 8.89° C | 78% | 1042.6 hPa | 0 mm | - | - | - |
| 1777767619 | 8.89° C | 78% | 1042.7 hPa | 0 mm | - | - | - |
| 1777767020 | 9.44° C | 78% | 1042.5 hPa | 0 mm | - | - | - |
| 1777766419 | 9.44° C | 77% | 1042.8 hPa | 0 mm | - | - | - |
| 1777765819 | 9.44° C | 77% | 1042.6 hPa | 0 mm | - | - | - |
| 1777765220 | 9.44° C | 77% | 1042.9 hPa | 0 mm | - | - | - |
| 1777764620 | 10° C | 77% | 1042.9 hPa | 0 mm | - | - | - |
| 1777764019 | 10° C | 76% | 1042.8 hPa | 0 mm | - | - | - |
| 1777763419 | 10° C | 75% | 1042.7 hPa | 0 mm | - | - | - |
| 1777762820 | 10° C | 74% | 1042.9 hPa | 0 mm | - | - | - |
| 1777762219 | 10.56° C | 73% | 1042.9 hPa | 0 mm | - | - | - |
| 1777761619 | 10.56° C | 73% | 1043 hPa | 0 mm | - | - | - |
| 1777761019 | 11.11° C | 74% | 1042.7 hPa | 0 mm | - | - | - |
| 1777760419 | 10.56° C | 74% | 1043 hPa | 0 mm | - | - | - |
| 1777759820 | 10.56° C | 72% | 1043 hPa | 0 mm | - | - | - |
| 1777759224 | 11.11° C | 72% | 1043.1 hPa | 0 mm | - | - | - |
| 1777758619 | 11.67° C | 72% | 1043.1 hPa | 0 mm | - | - | - |
| 1777758019 | 11.67° C | 71% | 1043.3 hPa | 0 mm | - | - | - |
| 1777757420 | 11.67° C | 70% | 1043 hPa | 0 mm | - | - | - |
| 1777756819 | 12.22° C | 70% | 1043.2 hPa | 0 mm | - | - | - |
| 1777756219 | 12.22° C | 64% | 1043.2 hPa | 0 mm | - | - | - |
| 1777755620 | 13.33° C | 63% | 1043.5 hPa | 0 mm | - | - | - |
* Rain latest hour (hover to see other rain measurements)
** Current wind speed in m/s (hover to see current wind gust speed)